Погода в Онне

Япония     26°29′40″N   127°52′30″E
темп.,
°C
ветер,
м/с
пор.,
м/с
влажн.,
%
обл.,
%
осадки,
мм/ч
давл.,
гПа
погр.,
м
24 января, пн
пн2400:00+21юз5129295 7.1 1011695
03:00+21зсз489317 10.2 1010390
06:00+20ссз489279 0.1 1010463
09:00+20ссз5986100 0.1 1012597
12:00+21ссз468419 0.1 1013698
15:00+21ссз468013 0.6 1012777
18:00+19с5882100 0.3 1013591
21:00+18с4878100 0.4 1015561
25 января, вт
вт2500:00+17ссв4783100 0.1 1015433
03:00+17с487936 0.1 1016470
06:00+17с478075 0.0 1016480
09:00+17с4777100 0.1 1018645
12:00+18с566843 0.1 10181065
15:00+19с576520 0.1 10171267
18:00+17с587112 0.0 1018754
21:00+16с486968 0.0 1019752
26 января, ср
ср2600:00+16с3670100 0.0 1020710
03:00+16с4672100 0.0 1019555
06:00+16с47730 0.0 1019555
09:00+17ссв47713 0.0 1021918
12:00+18ссв466537 0.0 10211234
15:00+18с466494 0.0 10191285
18:00+17ссв477364 0.1 1019649
21:00+17св357891 0.2 1021459
27 января, чт
чт2700:00+16св348025 0.1 1021402
03:00+16ссв23810 0.2 1020303
06:00+15с22790 0.0 1020147
09:00+17ссв12742 0.0 1021173
12:00+20св236422 0.0 10201006
15:00+20всв336525 0.1 10181009
18:00+18всв347929 0.1 1019440
21:00+17всв358329 0.3 1020403
28 января, пт
пт2800:00+17в34825 0.1 1019351
03:00+17в228116 0.1 1019323
06:00+17всв128038 0.0 1018279
09:00+18в117425 0.0 1019350
12:00+20юв116953 0.0 1018830
15:00+20ююв227050 0.1 1016859
18:00+18ююв127661 0.2 1016331
21:00+18ююв227874 0.3 1017331